Location: De Greiden
(52.9496°N, 5.9137°E)
Time: 23:22:14
(UTC+00:00)

Aureole 3 - Pass Details

Date: 24 January 2021
Orbit: 381 x 1231 km, 82.5° (Epoch: 01 March)

Event Time Altitude Azimuth Distance (km) Brightness Sun altitude
Rises 17:09:32 0° 352° (N) 2,625 6.7 -9.4°
Reaches altitude 10° 17:11:53 10° 360° (N) 1,630 5.5 -9.8°
Maximum altitude 17:15:11 42° 73° (ENE) 609 3.1 -10.2°
Drops below altitude 10° 17:18:06 10° 147° (SSE) 1,432 5.3 -10.6°
Sets 17:20:03 0° 155° (SSE) 2,257 6.4 -10.9°
